297P/Beshore (2014)

Japanese version
Home page
Updated on June 11, 2016

---------------------------------------------------------------------

* Profile

Designation 297P/2014 D1
Recovery Date February 27, 2014
Magnitude 19.9 mag
Recoverer D. T. Durig (University of the South, Sewanee, TN, USA)

* Pictures

* Orbital Elements

Epoch 2014 Aug. 11.0 TT = JDT 2456880.5
T 2014 Aug. 29.96087 TT                                 MPC
q   2.3462027            (2000.0)            P               Q
n   0.15421451     Peri.  132.19725     -0.63215676     +0.75420856
a   3.4439160      Node    97.70861     -0.75320425     -0.54435033
e   0.3187399      Incl.   10.32522     -0.18182736     -0.36722223
P   6.39
From 508 observations 2008 May 6-2014 June 18, mean residual 0".5.

* Finding Charts

* Magnitudes Graph

        m1 = 12.5 + 5 log d + 15 log r

        * Gray curve is:  m1 = -5 + 5 log d + 50 log r

---------------------------------------------------------------------

The orbital elements are published on M.P.E.C. 2014-V27.
The charts are made with StellaNavigator Ver.8 (AstroArts).
The magnitudes graphs are made with Comet for Windows.

---------------------------------------------------------------------

Copyright(C) Seiichi Yoshida (comet@aerith.net). All rights reserved.